Year,Month,Day,Hour,Minute,Value (Times are PST for temperature in C)
2012,08,17,00,00,23.50
2012,08,17,00,01,23.50
2012,08,17,00,02,23.50
2012,08,17,00,03,23.50
2012,08,17,00,04,23.50
2012,08,17,00,05,23.50
2012,08,17,00,06,23.50
2012,08,17,00,07,23.50
2012,08,17,00,08,23.60
2012,08,17,00,09,23.60
2012,08,17,00,10,23.60
2012,08,17,00,11,23.60
2012,08,17,00,12,23.60
2012,08,17,00,13,23.70
2012,08,17,00,14,23.70
2012,08,17,00,15,23.70
2012,08,17,00,16,23.80
2012,08,17,00,17,23.80
2012,08,17,00,18,23.80
2012,08,17,00,19,23.90
2012,08,17,00,20,23.90
2012,08,17,00,21,23.90
2012,08,17,00,22,23.90
2012,08,17,00,23,23.90
2012,08,17,00,24,23.90
2012,08,17,00,25,23.90
2012,08,17,00,26,23.90
2012,08,17,00,27,23.90
2012,08,17,00,28,23.90
2012,08,17,00,29,23.90
2012,08,17,00,30,23.90
2012,08,17,00,31,23.90
2012,08,17,00,32,23.90
2012,08,17,00,33,23.90
2012,08,17,00,34,23.90
2012,08,17,00,35,23.90
2012,08,17,00,36,23.90
2012,08,17,00,37,23.90
2012,08,17,00,38,23.90
2012,08,17,00,39,24.00
2012,08,17,00,40,24.00
2012,08,17,00,41,24.10
2012,08,17,00,42,24.10
2012,08,17,00,43,24.10
2012,08,17,00,44,24.10
2012,08,17,00,45,24.10
2012,08,17,00,46,24.20
2012,08,17,00,47,24.20
2012,08,17,00,48,24.20
2012,08,17,00,49,24.20
2012,08,17,00,50,24.20
2012,08,17,00,51,24.20
2012,08,17,00,52,24.20
2012,08,17,00,53,24.20
2012,08,17,00,54,24.20
2012,08,17,00,55,24.20
2012,08,17,00,56,24.10
2012,08,17,00,57,24.10
2012,08,17,00,58,24.10
2012,08,17,00,59,24.00
2012,08,17,01,00,24.00
2012,08,17,01,01,23.90
2012,08,17,01,02,23.90
2012,08,17,01,03,23.90
2012,08,17,01,04,23.90
2012,08,17,01,05,23.90
2012,08,17,01,06,23.90
2012,08,17,01,07,23.90
2012,08,17,01,08,23.90
2012,08,17,01,09,23.90
2012,08,17,01,10,23.80
2012,08,17,01,11,23.70
2012,08,17,01,12,23.70
2012,08,17,01,13,23.60
2012,08,17,01,14,23.50
2012,08,17,01,15,23.50
2012,08,17,01,16,23.40
2012,08,17,01,17,23.40
2012,08,17,01,18,23.40
2012,08,17,01,19,23.40
2012,08,17,01,20,23.40
2012,08,17,01,21,23.40
2012,08,17,01,22,23.40
2012,08,17,01,23,23.50
2012,08,17,01,24,23.60
2012,08,17,01,25,23.60
2012,08,17,01,26,23.60
2012,08,17,01,27,23.50
2012,08,17,01,28,23.50
2012,08,17,01,29,23.50
2012,08,17,01,30,23.40
2012,08,17,01,31,23.40
2012,08,17,01,32,23.40
2012,08,17,01,33,23.40
2012,08,17,01,34,23.40
2012,08,17,01,35,23.30
2012,08,17,01,36,23.30
2012,08,17,01,37,23.30
2012,08,17,01,38,23.20
2012,08,17,01,39,23.20
2012,08,17,01,40,23.10
2012,08,17,01,41,23.00
2012,08,17,01,42,23.00
2012,08,17,01,43,22.90
2012,08,17,01,44,22.80
2012,08,17,01,45,22.80
2012,08,17,01,46,22.70
2012,08,17,01,47,22.70
2012,08,17,01,48,22.60
2012,08,17,01,49,22.60
2012,08,17,01,50,22.50
2012,08,17,01,51,22.50
2012,08,17,01,52,22.40
2012,08,17,01,53,22.40
2012,08,17,01,54,22.40
2012,08,17,01,55,22.50
2012,08,17,01,56,22.50
2012,08,17,01,57,22.40
2012,08,17,01,58,22.40
2012,08,17,01,59,22.40
2012,08,17,02,00,22.40
2012,08,17,02,01,22.50
2012,08,17,02,02,22.50
2012,08,17,02,03,22.60
2012,08,17,02,04,22.60
2012,08,17,02,05,22.60
2012,08,17,02,06,22.60
2012,08,17,02,07,22.60
2012,08,17,02,08,22.60
2012,08,17,02,09,22.50
2012,08,17,02,10,22.50
2012,08,17,02,11,22.50
2012,08,17,02,12,22.50
2012,08,17,02,13,22.40
2012,08,17,02,14,22.40
2012,08,17,02,15,22.40
2012,08,17,02,16,22.30
2012,08,17,02,17,22.30
2012,08,17,02,18,22.20
2012,08,17,02,19,22.20
2012,08,17,02,20,22.10
2012,08,17,02,21,22.10
2012,08,17,02,22,22.10
2012,08,17,02,23,22.10
2012,08,17,02,24,22.00
2012,08,17,02,25,22.00
2012,08,17,02,26,22.00
2012,08,17,02,27,22.00
2012,08,17,02,28,21.90
2012,08,17,02,29,21.90
2012,08,17,02,30,21.90
2012,08,17,02,31,21.80
2012,08,17,02,32,21.80
2012,08,17,02,33,21.70
2012,08,17,02,34,21.60
2012,08,17,02,35,21.60
2012,08,17,02,36,21.50
2012,08,17,02,37,21.40
2012,08,17,02,38,21.40
2012,08,17,02,39,21.30
2012,08,17,02,40,21.20
2012,08,17,02,41,21.20
2012,08,17,02,42,21.10
2012,08,17,02,43,21.10
2012,08,17,02,44,21.00
2012,08,17,02,45,21.00
2012,08,17,02,46,21.00
2012,08,17,02,47,20.90
2012,08,17,02,48,20.90
2012,08,17,02,49,20.90
2012,08,17,02,50,20.90
2012,08,17,02,51,21.00
2012,08,17,02,52,21.00
2012,08,17,02,53,21.00
2012,08,17,02,54,21.10
2012,08,17,02,55,21.10
2012,08,17,02,56,21.10
2012,08,17,02,57,21.10
2012,08,17,02,58,21.10
2012,08,17,02,59,21.10
2012,08,17,03,00,21.10
2012,08,17,03,01,21.00
2012,08,17,03,02,21.00
2012,08,17,03,03,20.90
2012,08,17,03,04,20.90
2012,08,17,03,05,20.80
2012,08,17,03,06,20.80
2012,08,17,03,07,20.70
2012,08,17,03,08,20.60
2012,08,17,03,09,20.60
2012,08,17,03,10,20.50
2012,08,17,03,11,20.50
2012,08,17,03,12,20.40
2012,08,17,03,13,20.40
2012,08,17,03,14,20.40
2012,08,17,03,15,20.40
2012,08,17,03,16,20.40
2012,08,17,03,17,20.40
2012,08,17,03,18,20.40
2012,08,17,03,19,20.40
2012,08,17,03,20,20.40
2012,08,17,03,21,20.40
2012,08,17,03,22,20.40
2012,08,17,03,23,20.40
2012,08,17,03,24,20.40
2012,08,17,03,25,20.30
2012,08,17,03,26,20.30
2012,08,17,03,27,20.30
2012,08,17,03,28,20.30
2012,08,17,03,29,20.20
2012,08,17,03,30,20.20
2012,08,17,03,31,20.10
2012,08,17,03,32,20.10
2012,08,17,03,33,20.00
2012,08,17,03,34,19.90
2012,08,17,03,35,19.90
2012,08,17,03,36,19.80
2012,08,17,03,37,19.80
2012,08,17,03,38,19.80
2012,08,17,03,39,19.80
2012,08,17,03,40,19.80
2012,08,17,03,41,19.80
2012,08,17,03,42,19.70
2012,08,17,03,43,19.70
2012,08,17,03,44,19.70
2012,08,17,03,45,19.70
2012,08,17,03,46,19.70
2012,08,17,03,47,19.70
2012,08,17,03,48,19.70
2012,08,17,03,49,19.60
2012,08,17,03,50,19.60
2012,08,17,03,51,19.50
2012,08,17,03,52,19.50
2012,08,17,03,53,19.40
2012,08,17,03,54,19.30
2012,08,17,03,55,19.30
2012,08,17,03,56,19.30
2012,08,17,03,57,19.20
2012,08,17,03,58,19.20
2012,08,17,03,59,19.30
2012,08,17,04,00,19.30
2012,08,17,04,01,19.40
2012,08,17,04,02,19.40
2012,08,17,04,03,19.50
2012,08,17,04,04,19.50
2012,08,17,04,05,19.60
2012,08,17,04,06,19.60
2012,08,17,04,07,19.60
2012,08,17,04,08,19.60
2012,08,17,04,09,19.60
2012,08,17,04,10,19.60
2012,08,17,04,11,19.70
2012,08,17,04,12,19.70
2012,08,17,04,13,19.80
2012,08,17,04,14,19.80
2012,08,17,04,15,19.80
2012,08,17,04,16,19.80
2012,08,17,04,17,19.80
2012,08,17,04,18,19.80
2012,08,17,04,19,19.90
2012,08,17,04,20,19.90
2012,08,17,04,21,19.90
2012,08,17,04,22,19.90
2012,08,17,04,23,19.90
2012,08,17,04,24,19.90
2012,08,17,04,25,19.90
2012,08,17,04,26,19.80
2012,08,17,04,27,19.80
2012,08,17,04,28,19.80
2012,08,17,04,29,19.70
2012,08,17,04,30,19.70
2012,08,17,04,31,19.70
2012,08,17,04,32,19.60
2012,08,17,04,33,19.60
2012,08,17,04,34,19.50
2012,08,17,04,35,19.50
2012,08,17,04,36,19.40
2012,08,17,04,37,19.40
2012,08,17,04,38,19.30
2012,08,17,04,39,19.30
2012,08,17,04,40,19.20
2012,08,17,04,41,19.10
2012,08,17,04,42,19.10
2012,08,17,04,43,19.00
2012,08,17,04,44,19.00
2012,08,17,04,45,19.00
2012,08,17,04,46,19.00
2012,08,17,04,47,19.00
2012,08,17,04,48,19.10
2012,08,17,04,49,19.10
2012,08,17,04,50,19.10
2012,08,17,04,51,19.10
2012,08,17,04,52,19.10
2012,08,17,04,53,19.10
2012,08,17,04,54,19.10
2012,08,17,04,55,19.20
2012,08,17,04,56,19.20
2012,08,17,04,57,19.20
2012,08,17,04,58,19.20
2012,08,17,04,59,19.20
2012,08,17,05,00,19.10
2012,08,17,05,01,19.10
2012,08,17,05,02,19.10
2012,08,17,05,03,19.10
2012,08,17,05,04,19.00
2012,08,17,05,05,19.00
2012,08,17,05,06,19.00
2012,08,17,05,07,18.90
2012,08,17,05,08,18.90
2012,08,17,05,09,18.90
2012,08,17,05,10,18.90
2012,08,17,05,11,18.90
2012,08,17,05,12,18.90
2012,08,17,05,13,18.90
2012,08,17,05,14,18.90
2012,08,17,05,15,18.90
2012,08,17,05,16,18.90
2012,08,17,05,17,19.00
2012,08,17,05,18,19.00
2012,08,17,05,19,19.10
2012,08,17,05,20,19.10
2012,08,17,05,21,19.10
2012,08,17,05,22,19.10
2012,08,17,05,23,19.20
2012,08,17,05,24,19.20
2012,08,17,05,25,19.20
2012,08,17,05,26,19.20
2012,08,17,05,27,19.30
2012,08,17,05,28,19.30
2012,08,17,05,29,19.40
2012,08,17,05,30,19.40
2012,08,17,05,31,19.40
2012,08,17,05,32,19.40
2012,08,17,05,33,19.40
2012,08,17,05,34,19.40
2012,08,17,05,35,19.40
2012,08,17,05,36,19.40
2012,08,17,05,37,19.40
2012,08,17,05,38,19.40
2012,08,17,05,39,19.40
2012,08,17,05,40,19.40
2012,08,17,05,41,19.30
2012,08,17,05,42,19.30
2012,08,17,05,43,19.30
2012,08,17,05,44,19.30
2012,08,17,05,45,19.20
2012,08,17,05,46,19.20
2012,08,17,05,47,19.20
2012,08,17,05,48,19.10
2012,08,17,05,49,19.10
2012,08,17,05,50,19.00
2012,08,17,05,51,18.90
2012,08,17,05,52,18.90
2012,08,17,05,53,18.80
2012,08,17,05,54,18.70
2012,08,17,05,55,18.60
2012,08,17,05,56,18.60
2012,08,17,05,57,18.50
2012,08,17,05,58,18.40
2012,08,17,05,59,18.30
2012,08,17,06,00,18.30
2012,08,17,06,01,18.20
2012,08,17,06,02,18.10
2012,08,17,06,03,18.10
2012,08,17,06,04,18.00
2012,08,17,06,05,18.00
2012,08,17,06,06,17.90
2012,08,17,06,07,17.80
2012,08,17,06,08,17.80
2012,08,17,06,09,17.70
2012,08,17,06,10,17.70
2012,08,17,06,11,17.60
2012,08,17,06,12,17.60
2012,08,17,06,13,17.50
2012,08,17,06,14,17.50
2012,08,17,06,15,17.40
2012,08,17,06,16,17.40
2012,08,17,06,17,17.30
2012,08,17,06,18,17.30
2012,08,17,06,19,17.30
2012,08,17,06,20,17.30
2012,08,17,06,21,17.30
2012,08,17,06,22,17.30
2012,08,17,06,23,17.30
2012,08,17,06,24,17.30
2012,08,17,06,25,17.30
2012,08,17,06,26,17.30
2012,08,17,06,27,17.30
2012,08,17,06,28,17.40
2012,08,17,06,29,17.40
2012,08,17,06,30,17.40
2012,08,17,06,31,17.40
2012,08,17,06,32,17.50
2012,08,17,06,33,17.50
2012,08,17,06,34,17.50
2012,08,17,06,35,17.60
2012,08,17,06,36,17.60
2012,08,17,06,37,17.60
2012,08,17,06,38,17.60
2012,08,17,06,39,17.60
2012,08,17,06,40,17.60
2012,08,17,06,41,17.60
2012,08,17,06,42,17.60
2012,08,17,06,43,17.60
2012,08,17,06,44,17.60
2012,08,17,06,45,17.60
2012,08,17,06,46,17.60
2012,08,17,06,47,17.60
2012,08,17,06,48,17.60
2012,08,17,06,49,17.60
2012,08,17,06,50,17.60
2012,08,17,06,51,17.60
2012,08,17,06,52,17.60
2012,08,17,06,53,17.60
2012,08,17,06,54,17.60
2012,08,17,06,55,17.70
2012,08,17,06,56,17.70
2012,08,17,06,57,17.70
2012,08,17,06,58,17.70
2012,08,17,06,59,17.70
2012,08,17,07,00,17.80
2012,08,17,07,01,17.80
2012,08,17,07,02,17.80
2012,08,17,07,03,17.90
2012,08,17,07,04,17.90
2012,08,17,07,05,18.00
2012,08,17,07,06,18.10
2012,08,17,07,07,18.20
2012,08,17,07,08,18.30
2012,08,17,07,09,18.40
2012,08,17,07,10,18.50
2012,08,17,07,11,18.60
2012,08,17,07,12,18.70
2012,08,17,07,13,18.80
2012,08,17,07,14,18.90
2012,08,17,07,15,19.10
2012,08,17,07,16,19.10
2012,08,17,07,17,19.20
2012,08,17,07,18,19.30
2012,08,17,07,19,19.40
2012,08,17,07,20,19.50
2012,08,17,07,21,19.50
2012,08,17,07,22,19.50
2012,08,17,07,23,19.60
2012,08,17,07,24,19.60
2012,08,17,07,25,19.60
2012,08,17,07,26,19.60
2012,08,17,07,27,19.60
2012,08,17,07,28,19.60
2012,08,17,07,29,19.60
2012,08,17,07,30,19.70
2012,08,17,07,31,19.70
2012,08,17,07,32,19.70
2012,08,17,07,33,19.70
2012,08,17,07,34,19.80
2012,08,17,07,35,19.80
2012,08,17,07,36,19.90
2012,08,17,07,37,20.00
2012,08,17,07,38,20.10
2012,08,17,07,39,20.10
2012,08,17,07,40,20.20
2012,08,17,07,41,20.20
2012,08,17,07,42,20.10
2012,08,17,07,43,20.10
2012,08,17,07,44,20.10
2012,08,17,07,45,20.10
2012,08,17,07,46,20.10
2012,08,17,07,47,20.10
2012,08,17,07,48,20.10
2012,08,17,07,49,20.10
2012,08,17,07,50,20.10
2012,08,17,07,51,20.20
2012,08,17,07,52,20.30
2012,08,17,07,53,20.40
2012,08,17,07,54,20.60
2012,08,17,07,55,20.80
2012,08,17,07,56,20.90
2012,08,17,07,57,21.00
2012,08,17,07,58,21.10
2012,08,17,07,59,21.10
2012,08,17,08,00,21.20
2012,08,17,08,01,21.20
2012,08,17,08,02,21.30
2012,08,17,08,03,21.30
2012,08,17,08,04,21.40
2012,08,17,08,05,21.40
2012,08,17,08,06,21.50
2012,08,17,08,07,21.50
2012,08,17,08,08,21.60
2012,08,17,08,09,21.70
2012,08,17,08,10,21.70
2012,08,17,08,11,21.80
2012,08,17,08,12,21.80
2012,08,17,08,13,21.90
2012,08,17,08,14,22.00
2012,08,17,08,15,22.00
2012,08,17,08,16,22.10
2012,08,17,08,17,22.20
2012,08,17,08,18,22.20
2012,08,17,08,19,22.30
2012,08,17,08,20,22.40
2012,08,17,08,21,22.40
2012,08,17,08,22,22.50
2012,08,17,08,23,22.50
2012,08,17,08,24,22.60
2012,08,17,08,25,22.60
2012,08,17,08,26,22.60
2012,08,17,08,27,22.70
2012,08,17,08,28,22.80
2012,08,17,08,29,22.80
2012,08,17,08,30,22.90
2012,08,17,08,31,22.90
2012,08,17,08,32,22.90
2012,08,17,08,33,23.00
2012,08,17,08,34,23.10
2012,08,17,08,35,23.20
2012,08,17,08,36,23.30
2012,08,17,08,37,23.30
2012,08,17,08,38,23.20
2012,08,17,08,39,23.20
2012,08,17,08,40,23.10
2012,08,17,08,41,23.10
2012,08,17,08,42,23.10
2012,08,17,08,43,23.10
2012,08,17,08,44,23.20
2012,08,17,08,45,23.20
2012,08,17,08,46,23.20
2012,08,17,08,47,23.20
2012,08,17,08,48,23.20
2012,08,17,08,49,23.20
2012,08,17,08,50,23.30
2012,08,17,08,51,23.30
2012,08,17,08,52,23.40
2012,08,17,08,53,23.40
2012,08,17,08,54,23.50
2012,08,17,08,55,23.60
2012,08,17,08,56,23.60
2012,08,17,08,57,23.60
2012,08,17,08,58,23.60
2012,08,17,08,59,23.60
2012,08,17,09,00,23.60
2012,08,17,09,01,23.60
2012,08,17,09,02,23.60
2012,08,17,09,03,23.60
2012,08,17,09,04,23.50
2012,08,17,09,05,23.50
2012,08,17,09,06,23.50
2012,08,17,09,07,23.50
2012,08,17,09,08,23.50
2012,08,17,09,09,23.50
2012,08,17,09,10,23.50
2012,08,17,09,11,23.50
2012,08,17,09,12,23.50
2012,08,17,09,13,23.50
2012,08,17,09,14,23.50
2012,08,17,09,15,23.50
2012,08,17,09,16,23.50
2012,08,17,09,17,23.60
2012,08,17,09,18,23.50
2012,08,17,09,19,23.50
2012,08,17,09,20,23.50
2012,08,17,09,21,23.50
2012,08,17,09,22,23.60
2012,08,17,09,23,23.60
2012,08,17,09,24,23.60
2012,08,17,09,25,23.70
2012,08,17,09,26,23.70
2012,08,17,09,27,23.80
2012,08,17,09,28,23.80
2012,08,17,09,29,23.90
2012,08,17,09,30,23.90
2012,08,17,09,31,23.90
2012,08,17,09,32,23.90
2012,08,17,09,33,24.00
2012,08,17,09,34,24.00
2012,08,17,09,35,24.10
2012,08,17,09,36,24.20
2012,08,17,09,37,24.20
2012,08,17,09,38,24.20
2012,08,17,09,39,24.30
2012,08,17,09,40,24.30
2012,08,17,09,41,24.30
2012,08,17,09,42,24.30
2012,08,17,09,43,24.30
2012,08,17,09,44,24.30
2012,08,17,09,45,24.40
2012,08,17,09,46,24.40
2012,08,17,09,47,24.40
2012,08,17,09,48,24.40
2012,08,17,09,49,24.40
2012,08,17,09,50,24.50
2012,08,17,09,51,24.50
2012,08,17,09,52,24.60
2012,08,17,09,53,24.60
2012,08,17,09,54,24.70
2012,08,17,09,55,24.80
2012,08,17,09,56,24.80
2012,08,17,09,57,24.80
2012,08,17,09,58,24.80
2012,08,17,09,59,24.80
2012,08,17,10,00,24.80
2012,08,17,10,01,24.90
2012,08,17,10,02,24.90
2012,08,17,10,03,25.00
2012,08,17,10,04,25.00
2012,08,17,10,05,25.00
2012,08,17,10,06,25.00
2012,08,17,10,07,25.00
2012,08,17,10,08,25.00
2012,08,17,10,09,24.90
2012,08,17,10,10,24.90
2012,08,17,10,11,25.00
2012,08,17,10,12,25.00
2012,08,17,10,13,25.00
2012,08,17,10,14,25.10
2012,08,17,10,15,25.10
2012,08,17,10,16,25.10
2012,08,17,10,17,25.10
2012,08,17,10,18,25.10
2012,08,17,10,19,25.00
2012,08,17,10,20,25.00
2012,08,17,10,21,25.00
2012,08,17,10,22,25.10
2012,08,17,10,23,25.10
2012,08,17,10,24,25.10
2012,08,17,10,25,25.20
2012,08,17,10,26,25.20
2012,08,17,10,27,25.20
2012,08,17,10,28,25.30
2012,08,17,10,29,25.30
2012,08,17,10,30,25.30
2012,08,17,10,31,25.30
2012,08,17,10,32,25.30
2012,08,17,10,33,25.30
2012,08,17,10,34,25.30
2012,08,17,10,35,25.30
2012,08,17,10,36,25.20
2012,08,17,10,37,25.20
2012,08,17,10,38,25.20
2012,08,17,10,39,25.20
2012,08,17,10,40,25.30
2012,08,17,10,41,25.30
2012,08,17,10,42,25.30
2012,08,17,10,43,25.30
2012,08,17,10,44,25.40
2012,08,17,10,45,25.40
2012,08,17,10,46,25.40
2012,08,17,10,47,25.40
2012,08,17,10,48,25.40
2012,08,17,10,49,25.40
2012,08,17,10,50,25.40
2012,08,17,10,51,25.50
2012,08,17,10,52,25.50
2012,08,17,10,53,25.60
2012,08,17,10,54,25.80
2012,08,17,10,55,25.90
2012,08,17,10,56,26.00
2012,08,17,10,57,26.10
2012,08,17,10,58,26.10
2012,08,17,10,59,26.20
2012,08,17,11,00,26.20
2012,08,17,11,01,26.20
2012,08,17,11,02,26.20
2012,08,17,11,03,26.20
2012,08,17,11,04,26.20
2012,08,17,11,05,26.10
2012,08,17,11,06,26.10
2012,08,17,11,07,26.10
2012,08,17,11,08,26.00
2012,08,17,11,09,25.90
2012,08,17,11,10,26.00
2012,08,17,11,11,26.00
2012,08,17,11,12,26.10
2012,08,17,11,13,26.20
2012,08,17,11,14,26.20
2012,08,17,11,15,26.30
2012,08,17,11,16,26.30
2012,08,17,11,17,26.30
2012,08,17,11,18,26.20
2012,08,17,11,19,26.30
2012,08,17,11,20,26.30
2012,08,17,11,21,26.40
2012,08,17,11,22,26.40
2012,08,17,11,23,26.50
2012,08,17,11,24,26.60
2012,08,17,11,25,26.60
2012,08,17,11,26,26.60
2012,08,17,11,27,26.60
2012,08,17,11,28,26.70
2012,08,17,11,29,26.70
2012,08,17,11,30,26.70
2012,08,17,11,31,26.70
2012,08,17,11,32,26.80
2012,08,17,11,33,26.80
2012,08,17,11,34,26.80
2012,08,17,11,35,26.90
2012,08,17,11,36,26.80
2012,08,17,11,37,26.90
2012,08,17,11,38,26.90
2012,08,17,11,39,26.90
2012,08,17,11,40,26.90
2012,08,17,11,41,26.80
2012,08,17,11,42,26.90
2012,08,17,11,43,26.90
2012,08,17,11,44,26.90
2012,08,17,11,45,26.90
2012,08,17,11,46,26.90
2012,08,17,11,47,26.90
2012,08,17,11,48,26.90
2012,08,17,11,49,27.00
2012,08,17,11,50,27.10
2012,08,17,11,51,27.10
2012,08,17,11,52,27.10
2012,08,17,11,53,27.00
2012,08,17,11,54,27.00
2012,08,17,11,55,27.00
2012,08,17,11,56,27.00
2012,08,17,11,57,27.00
2012,08,17,11,58,27.00
2012,08,17,11,59,27.00
2012,08,17,12,00,27.00
2012,08,17,12,01,27.10
2012,08,17,12,02,27.10
2012,08,17,12,03,27.10
2012,08,17,12,04,27.20
2012,08,17,12,05,27.10
2012,08,17,12,06,27.20
2012,08,17,12,07,27.20
2012,08,17,12,08,27.20
2012,08,17,12,09,27.30
2012,08,17,12,10,27.30
2012,08,17,12,11,27.40
2012,08,17,12,12,27.40
2012,08,17,12,13,27.40
2012,08,17,12,14,27.40
2012,08,17,12,15,27.30
2012,08,17,12,16,27.30
2012,08,17,12,17,27.30
2012,08,17,12,18,27.30
2012,08,17,12,19,27.30
2012,08,17,12,20,27.40
2012,08,17,12,21,27.50
2012,08,17,12,22,27.70
2012,08,17,12,23,27.90
2012,08,17,12,24,28.10
2012,08,17,12,25,28.20
2012,08,17,12,26,28.40
2012,08,17,12,27,28.60
2012,08,17,12,28,28.70
2012,08,17,12,29,28.80
2012,08,17,12,30,28.90
2012,08,17,12,31,28.90
2012,08,17,12,32,28.90
2012,08,17,12,33,28.80
2012,08,17,12,34,28.80
2012,08,17,12,35,28.80
2012,08,17,12,36,28.80
2012,08,17,12,37,28.80
2012,08,17,12,38,28.90
2012,08,17,12,39,29.00
2012,08,17,12,40,29.00
2012,08,17,12,41,29.00
2012,08,17,12,42,28.90
2012,08,17,12,43,28.80
2012,08,17,12,44,28.70
2012,08,17,12,45,28.60
2012,08,17,12,46,28.50
2012,08,17,12,47,28.40
2012,08,17,12,48,28.40
2012,08,17,12,49,28.40
2012,08,17,12,50,28.50
2012,08,17,12,51,28.60
2012,08,17,12,52,28.70
2012,08,17,12,53,28.70
2012,08,17,12,54,28.70
2012,08,17,12,55,28.80
2012,08,17,12,56,28.80
2012,08,17,12,57,28.90
2012,08,17,12,58,28.90
2012,08,17,12,59,28.80
2012,08,17,13,00,28.80
2012,08,17,13,01,28.70
2012,08,17,13,02,28.70
2012,08,17,13,03,28.70
2012,08,17,13,04,28.70
2012,08,17,13,05,28.80
2012,08,17,13,06,28.80
2012,08,17,13,07,28.80
2012,08,17,13,08,28.90
2012,08,17,13,09,28.90
2012,08,17,13,10,29.00
2012,08,17,13,11,29.10
2012,08,17,13,12,29.10
2012,08,17,13,13,29.20
2012,08,17,13,14,29.20
2012,08,17,13,15,29.30
2012,08,17,13,16,29.30
2012,08,17,13,17,29.30
2012,08,17,13,18,29.30
2012,08,17,13,19,29.30
2012,08,17,13,20,29.40
2012,08,17,13,21,29.50
2012,08,17,13,22,29.60
2012,08,17,13,23,29.70
2012,08,17,13,24,29.80
2012,08,17,13,25,29.80
2012,08,17,13,26,29.80
2012,08,17,13,27,29.80
2012,08,17,13,28,29.90
2012,08,17,13,29,29.90
2012,08,17,13,30,29.80
2012,08,17,13,31,29.80
2012,08,17,13,32,29.70
2012,08,17,13,33,29.60
2012,08,17,13,34,29.60
2012,08,17,13,35,29.60
2012,08,17,13,36,29.60
2012,08,17,13,37,29.60
2012,08,17,13,38,29.70
2012,08,17,13,39,29.70
2012,08,17,13,40,29.80
2012,08,17,13,41,29.80
2012,08,17,13,42,29.80
2012,08,17,13,43,29.80
2012,08,17,13,44,29.80
2012,08,17,13,45,29.80
2012,08,17,13,46,29.80
2012,08,17,13,47,29.80
2012,08,17,13,48,29.80
2012,08,17,13,49,29.80
2012,08,17,13,50,29.80
2012,08,17,13,51,29.80
2012,08,17,13,52,29.80
2012,08,17,13,53,29.80
2012,08,17,13,54,29.80
2012,08,17,13,55,29.80
2012,08,17,13,56,29.80
2012,08,17,13,57,29.80
2012,08,17,13,58,29.80
2012,08,17,13,59,29.80
2012,08,17,14,00,29.80
2012,08,17,14,01,29.80
2012,08,17,14,02,29.70
2012,08,17,14,03,29.70
2012,08,17,14,04,29.70
2012,08,17,14,05,29.70
2012,08,17,14,06,29.70
2012,08,17,14,07,29.80
2012,08,17,14,08,29.80
2012,08,17,14,09,29.80
2012,08,17,14,10,29.80
2012,08,17,14,11,29.80
2012,08,17,14,12,29.80
2012,08,17,14,13,29.80
2012,08,17,14,14,29.70
2012,08,17,14,15,29.60
2012,08,17,14,16,29.60
2012,08,17,14,17,29.60
2012,08,17,14,18,29.60
2012,08,17,14,19,29.60
2012,08,17,14,20,29.60
2012,08,17,14,21,29.70
2012,08,17,14,22,29.70
2012,08,17,14,23,29.70
2012,08,17,14,24,29.70
2012,08,17,14,25,29.70
2012,08,17,14,26,29.70
2012,08,17,14,27,29.60
2012,08,17,14,28,29.60
2012,08,17,14,29,29.70
2012,08,17,14,30,29.70
2012,08,17,14,31,29.70
2012,08,17,14,32,29.80
2012,08,17,14,33,29.80
2012,08,17,14,34,29.80
2012,08,17,14,35,29.80
2012,08,17,14,36,29.70
2012,08,17,14,37,29.60
2012,08,17,14,38,29.60
2012,08,17,14,39,29.70
2012,08,17,14,40,29.70
2012,08,17,14,41,29.80
2012,08,17,14,42,29.80
2012,08,17,14,43,29.90
2012,08,17,14,44,29.90
2012,08,17,14,45,29.90
2012,08,17,14,46,29.90
2012,08,17,14,47,29.80
2012,08,17,14,48,29.80
2012,08,17,14,49,29.70
2012,08,17,14,50,29.60
2012,08,17,14,51,29.60
2012,08,17,14,52,29.60
2012,08,17,14,53,29.50
2012,08,17,14,54,29.30
2012,08,17,14,55,29.30
2012,08,17,14,56,29.20
2012,08,17,14,57,29.20
2012,08,17,14,58,29.20
2012,08,17,14,59,29.20
2012,08,17,15,00,29.20
2012,08,17,15,01,29.30
2012,08,17,15,02,29.40
2012,08,17,15,03,29.40
2012,08,17,15,04,29.50
2012,08,17,15,05,29.50
2012,08,17,15,06,29.60
2012,08,17,15,07,29.70
2012,08,17,15,08,29.70
2012,08,17,15,09,29.70
2012,08,17,15,10,29.70
2012,08,17,15,11,29.70
2012,08,17,15,12,29.70
2012,08,17,15,13,29.70
2012,08,17,15,14,29.70
2012,08,17,15,15,29.60
2012,08,17,15,16,29.60
2012,08,17,15,17,29.50
2012,08,17,15,18,29.50
2012,08,17,15,19,29.40
2012,08,17,15,20,29.40
2012,08,17,15,21,29.40
2012,08,17,15,22,29.40
2012,08,17,15,23,29.30
2012,08,17,15,24,29.30
2012,08,17,15,25,29.20
2012,08,17,15,26,29.10
2012,08,17,15,27,29.00
2012,08,17,15,28,28.90
2012,08,17,15,29,28.80
2012,08,17,15,30,28.80
2012,08,17,15,31,28.80
2012,08,17,15,32,28.80
2012,08,17,15,33,28.90
2012,08,17,15,34,29.00
2012,08,17,15,35,29.10
2012,08,17,15,36,29.10
2012,08,17,15,37,29.10
2012,08,17,15,38,29.20
2012,08,17,15,39,29.20
2012,08,17,15,40,29.20
2012,08,17,15,41,29.20
2012,08,17,15,42,29.30
2012,08,17,15,43,29.30
2012,08,17,15,44,29.40
2012,08,17,15,45,29.40
2012,08,17,15,46,29.50
2012,08,17,15,47,29.50
2012,08,17,15,48,29.60
2012,08,17,15,49,29.70
2012,08,17,15,50,29.80
2012,08,17,15,51,29.80
2012,08,17,15,52,29.80
2012,08,17,15,53,29.90
2012,08,17,15,54,29.90
2012,08,17,15,55,29.90
2012,08,17,15,56,29.90
2012,08,17,15,57,30.00
2012,08,17,15,58,30.10
2012,08,17,15,59,30.10
2012,08,17,16,00,30.10
2012,08,17,16,01,30.20
2012,08,17,16,02,30.20
2012,08,17,16,03,30.30
2012,08,17,16,04,30.20
2012,08,17,16,05,30.10
2012,08,17,16,06,30.10
2012,08,17,16,07,30.10
2012,08,17,16,08,30.20
2012,08,17,16,09,30.30
2012,08,17,16,10,30.30
2012,08,17,16,11,30.40
2012,08,17,16,12,30.40
2012,08,17,16,13,30.40
2012,08,17,16,14,30.30
2012,08,17,16,15,30.30
2012,08,17,16,16,30.30
2012,08,17,16,17,30.30
2012,08,17,16,18,30.20
2012,08,17,16,19,30.10
2012,08,17,16,20,30.00
2012,08,17,16,21,29.90
2012,08,17,16,22,29.80
2012,08,17,16,23,29.80
2012,08,17,16,24,29.70
2012,08,17,16,25,29.60
2012,08,17,16,26,29.60
2012,08,17,16,27,29.70
2012,08,17,16,28,29.70
2012,08,17,16,29,29.80
2012,08,17,16,30,29.90
2012,08,17,16,31,29.90
2012,08,17,16,32,29.90
2012,08,17,16,33,29.90
2012,08,17,16,34,29.90
2012,08,17,16,35,29.80
2012,08,17,16,36,29.80
2012,08,17,16,37,29.80
2012,08,17,16,38,29.80
2012,08,17,16,39,29.70
2012,08,17,16,40,29.60
2012,08,17,16,41,29.60
2012,08,17,16,42,29.60
2012,08,17,16,43,29.50
2012,08,17,16,44,29.50
2012,08,17,16,45,29.40
2012,08,17,16,46,29.40
2012,08,17,16,47,29.30
2012,08,17,16,48,29.30
2012,08,17,16,49,29.30
2012,08,17,16,50,29.30
2012,08,17,16,51,29.30
2012,08,17,16,52,29.30
2012,08,17,16,53,29.30
2012,08,17,16,54,29.30
2012,08,17,16,55,29.40
2012,08,17,16,56,29.40
2012,08,17,16,57,29.30
2012,08,17,16,58,29.20
2012,08,17,16,59,29.10
2012,08,17,17,00,29.00
2012,08,17,17,01,29.00
2012,08,17,17,02,28.90
2012,08,17,17,03,28.90
2012,08,17,17,04,28.90
2012,08,17,17,05,28.80
2012,08,17,17,06,28.80
2012,08,17,17,07,28.80
2012,08,17,17,08,28.80
2012,08,17,17,09,28.80
2012,08,17,17,10,28.80
2012,08,17,17,11,28.80
2012,08,17,17,12,28.80
2012,08,17,17,13,28.80
2012,08,17,17,14,28.80
2012,08,17,17,15,28.80
2012,08,17,17,16,28.90
2012,08,17,17,17,28.90
2012,08,17,17,18,29.00
2012,08,17,17,19,29.00